Time,TemperatureF,DewpointF,PressureIn,WindDirection,WindDirectionDegrees,WindSpeedMPH,WindSpeedGustMPH,Humidity,HourlyPrecipIn,Conditions,Clouds,dailyrainin,SoftwareType,DateUTC
2013-11-23 00:01:00,63.4,-39.0,29.77,SW,225,2.0,6.0,1,0.00,,,0.00,Weather View 32 v70,2013-11-23 05:01:00,
2013-11-23 00:03:00,63.2,-39.2,29.77,SW,225,2.0,5.0,1,0.00,,,0.00,Weather View 32 v70,2013-11-23 05:03:00,
2013-11-23 00:08:00,63.1,-39.2,29.76,SSW,202,1.0,4.0,1,0.00,,,0.00,Weather View 32 v70,2013-11-23 05:08:00,
2013-11-23 00:13:00,63.1,-39.2,29.76,SW,225,2.0,4.0,1,0.00,,,0.00,Weather View 32 v70,2013-11-23 05:13:00,
2013-11-23 00:18:00,63.3,-39.1,29.76,WSW,247,2.0,4.0,1,0.00,,,0.00,Weather View 32 v70,2013-11-23 05:18:00,
2013-11-23 00:23:00,63.4,-39.0,29.76,SSW,202,4.0,6.0,1,0.00,,,0.00,Weather View 32 v70,2013-11-23 05:23:00,
2013-11-23 00:28:00,63.4,-39.0,29.76,SW,225,4.0,6.0,1,0.00,,,0.00,Weather View 32 v70,2013-11-23 05:28:00,
2013-11-23 00:33:00,63.4,-39.0,29.75,SW,225,4.0,6.0,1,0.00,,,0.00,Weather View 32 v70,2013-11-23 05:33:00,
2013-11-23 00:38:00,63.4,-39.0,29.75,SW,225,4.0,7.0,1,0.00,,,0.00,Weather View 32 v70,2013-11-23 05:38:00,
2013-11-23 00:43:00,63.3,-39.1,29.75,SW,225,5.0,7.0,1,0.00,,,0.00,Weather View 32 v70,2013-11-23 05:43:00,
2013-11-23 00:48:00,63.3,-39.1,29.75,SW,225,6.0,7.0,1,0.00,,,0.00,Weather View 32 v70,2013-11-23 05:48:00,
2013-11-23 00:54:00,63.2,-39.2,29.75,SW,225,4.0,7.0,1,0.00,,,0.00,Weather View 32 v70,2013-11-23 05:54:00,
2013-11-23 00:59:00,63.2,-39.2,29.75,SW,225,6.0,7.0,1,0.00,,,0.00,Weather View 32 v70,2013-11-23 05:59:00,
2013-11-23 01:04:00,63.2,-39.2,29.75,SW,225,6.0,8.0,1,0.00,,,0.00,Weather View 32 v70,2013-11-23 06:04:00,
2013-11-23 01:09:00,63.2,-39.2,29.75,WSW,247,4.0,8.0,1,0.00,,,0.00,Weather View 32 v70,2013-11-23 06:09:00,
2013-11-23 01:14:00,63.2,-39.2,29.75,WSW,247,4.0,8.0,1,0.00,,,0.00,Weather View 32 v70,2013-11-23 06:14:00,
2013-11-23 01:19:00,63.2,-39.2,29.74,WSW,247,4.0,8.0,1,0.00,,,0.00,Weather View 32 v70,2013-11-23 06:19:00,
2013-11-23 01:24:00,63.3,-39.1,29.74,WSW,247,2.0,8.0,1,0.00,,,0.00,Weather View 32 v70,2013-11-23 06:24:00,
2013-11-23 01:29:00,63.3,-39.1,29.74,WSW,247,1.0,8.0,1,0.00,,,0.00,Weather View 32 v70,2013-11-23 06:29:00,
2013-11-23 01:34:00,63.3,-39.1,29.74,WSW,247,3.0,8.0,1,0.00,,,0.00,Weather View 32 v70,2013-11-23 06:34:00,
2013-11-23 01:39:00,63.3,-39.1,29.74,WSW,247,4.0,8.0,1,0.00,,,0.00,Weather View 32 v70,2013-11-23 06:39:00,
2013-11-23 01:44:00,63.3,-39.1,29.74,WSW,247,2.0,8.0,1,0.00,,,0.00,Weather View 32 v70,2013-11-23 06:44:00,
2013-11-23 01:49:00,63.3,-39.1,29.74,SW,225,4.0,8.0,1,0.00,,,0.00,Weather View 32 v70,2013-11-23 06:49:00,
2013-11-23 01:54:00,63.2,-39.2,29.74,SW,225,3.0,8.0,1,0.00,,,0.00,Weather View 32 v70,2013-11-23 06:54:00,
2013-11-23 01:59:00,63.2,-39.2,29.73,WSW,247,3.0,8.0,1,0.00,,,0.00,Weather View 32 v70,2013-11-23 06:59:00,
2013-11-23 02:04:00,63.1,-39.2,29.74,SW,225,2.0,8.0,1,0.00,,,0.00,Weather View 32 v70,2013-11-23 07:04:00,
2013-11-23 02:09:00,63.1,-39.2,29.74,WSW,247,6.0,7.0,1,0.00,,,0.00,Weather View 32 v70,2013-11-23 07:09:00,
2013-11-23 02:14:00,63.1,-39.2,29.74,WSW,247,4.0,7.0,1,0.00,,,0.00,Weather View 32 v70,2013-11-23 07:14:00,
2013-11-23 02:19:00,63.1,-39.2,29.74,WSW,247,3.0,7.0,1,0.00,,,0.00,Weather View 32 v70,2013-11-23 07:19:00,
2013-11-23 02:24:00,63.1,-39.2,29.74,WSW,247,5.0,7.0,1,0.00,,,0.00,Weather View 32 v70,2013-11-23 07:24:00,
2013-11-23 02:29:00,63.1,-39.2,29.74,SW,225,5.0,7.0,1,0.00,,,0.00,Weather View 32 v70,2013-11-23 07:29:00,
2013-11-23 02:34:00,63.1,-39.2,29.73,WSW,247,7.0,7.0,1,0.00,,,0.00,Weather View 32 v70,2013-11-23 07:34:00,
2013-11-23 02:39:00,63.2,-39.2,29.73,WSW,247,1.0,7.0,1,0.00,,,0.00,Weather View 32 v70,2013-11-23 07:39:00,
2013-11-23 02:44:00,63.2,-39.2,29.74,West,270,3.0,7.0,1,0.00,,,0.00,Weather View 32 v70,2013-11-23 07:44:00,
2013-11-23 02:49:00,63.3,-39.1,29.73,WSW,247,4.0,7.0,1,0.00,,,0.00,Weather View 32 v70,2013-11-23 07:49:00,
2013-11-23 02:54:00,63.3,-39.1,29.73,SW,225,3.0,7.0,1,0.00,,,0.00,Weather View 32 v70,2013-11-23 07:54:00,
2013-11-23 02:59:00,63.3,-39.1,29.73,SW,225,3.0,7.0,1,0.00,,,0.00,Weather View 32 v70,2013-11-23 07:59:00,
2013-11-23 03:04:00,63.3,-39.1,29.73,WSW,247,4.0,7.0,1,0.00,,,0.00,Weather View 32 v70,2013-11-23 08:04:00,
2013-11-23 03:09:00,63.2,-39.2,29.73,WSW,247,2.0,7.0,1,0.00,,,0.00,Weather View 32 v70,2013-11-23 08:09:00,
2013-11-23 03:14:00,63.2,-39.2,29.73,WSW,247,2.0,7.0,1,0.00,,,0.00,Weather View 32 v70,2013-11-23 08:14:00,
2013-11-23 03:19:00,63.1,-39.2,29.73,WSW,247,4.0,8.0,1,0.00,,,0.00,Weather View 32 v70,2013-11-23 08:19:00,
2013-11-23 03:24:00,63.2,-39.2,29.73,WSW,247,2.0,8.0,1,0.00,,,0.00,Weather View 32 v70,2013-11-23 08:24:00,
2013-11-23 03:30:00,63.1,-39.2,29.73,West,270,2.0,8.0,1,0.00,,,0.00,Weather View 32 v70,2013-11-23 08:30:00,
2013-11-23 03:35:00,63.2,-39.2,29.73,WSW,247,5.0,8.0,1,0.00,,,0.00,Weather View 32 v70,2013-11-23 08:35:00,
2013-11-23 03:40:00,63.2,-39.2,29.73,West,270,3.0,8.0,1,0.00,,,0.00,Weather View 32 v70,2013-11-23 08:40:00,
2013-11-23 03:45:00,63.2,-39.2,29.73,WNW,292,4.0,8.0,1,0.00,,,0.00,Weather View 32 v70,2013-11-23 08:45:00,
2013-11-23 03:50:00,63.1,-39.2,29.73,West,270,4.0,8.0,1,0.00,,,0.00,Weather View 32 v70,2013-11-23 08:50:00,
2013-11-23 03:55:00,63.1,-39.2,29.73,West,270,2.0,8.0,1,0.00,,,0.00,Weather View 32 v70,2013-11-23 08:55:00,
2013-11-23 04:00:00,63.1,-39.2,29.72,West,270,2.0,8.0,1,0.00,,,0.00,Weather View 32 v70,2013-11-23 09:00:00,
2013-11-23 04:05:00,63.0,-39.3,29.72,West,270,4.0,8.0,1,0.00,,,0.00,Weather View 32 v70,2013-11-23 09:05:00,
2013-11-23 04:10:00,62.9,-39.3,29.72,West,270,2.0,8.0,1,0.00,,,0.00,Weather View 32 v70,2013-11-23 09:10:00,
2013-11-23 04:15:00,62.9,-39.3,29.72,West,270,3.0,8.0,1,0.00,,,0.00,Weather View 32 v70,2013-11-23 09:15:00,
2013-11-23 04:20:00,62.9,-39.3,29.72,West,270,4.0,7.0,1,0.00,,,0.00,Weather View 32 v70,2013-11-23 09:20:00,
2013-11-23 04:25:00,62.9,-39.3,29.72,WNW,292,5.0,7.0,1,0.00,,,0.00,Weather View 32 v70,2013-11-23 09:25:00,
2013-11-23 04:30:00,62.9,-39.3,29.72,West,270,2.0,7.0,1,0.00,,,0.00,Weather View 32 v70,2013-11-23 09:30:00,
2013-11-23 04:35:00,62.9,-39.3,29.72,West,270,3.0,7.0,1,0.00,,,0.00,Weather View 32 v70,2013-11-23 09:35:00,
2013-11-23 04:40:00,62.9,-39.3,29.72,West,270,2.0,7.0,1,0.00,,,0.00,Weather View 32 v70,2013-11-23 09:40:00,
2013-11-23 04:45:00,62.9,-39.3,29.72,West,270,3.0,7.0,1,0.00,,,0.00,Weather View 32 v70,2013-11-23 09:45:00,
2013-11-23 04:50:00,63.0,-39.3,29.72,WSW,247,5.0,7.0,1,0.00,,,0.00,Weather View 32 v70,2013-11-23 09:50:00,
2013-11-23 04:55:00,63.0,-39.3,29.72,West,270,2.0,7.0,1,0.00,,,0.00,Weather View 32 v70,2013-11-23 09:55:00,
2013-11-23 05:00:00,63.0,-39.3,29.72,West,270,2.0,7.0,1,0.00,,,0.00,Weather View 32 v70,2013-11-23 10:00:00,
2013-11-23 05:05:00,63.0,-39.3,29.71,West,270,3.0,7.0,1,0.00,,,0.00,Weather View 32 v70,2013-11-23 10:05:00,
2013-11-23 05:10:00,62.9,-39.3,29.71,West,270,2.0,7.0,1,0.00,,,0.00,Weather View 32 v70,2013-11-23 10:10:00,
2013-11-23 05:15:00,62.9,-39.3,29.71,West,270,4.0,7.0,1,0.00,,,0.00,Weather View 32 v70,2013-11-23 10:15:00,
2013-11-23 05:20:00,63.0,-39.3,29.71,West,270,2.0,7.0,1,0.00,,,0.00,Weather View 32 v70,2013-11-23 10:20:00,
2013-11-23 05:25:00,63.0,-39.3,29.71,West,270,3.0,7.0,1,0.00,,,0.00,Weather View 32 v70,2013-11-23 10:25:00,
2013-11-23 05:30:00,63.0,-39.3,29.71,West,270,4.0,7.0,1,0.00,,,0.00,Weather View 32 v70,2013-11-23 10:30:00,
2013-11-23 05:35:00,63.0,-39.3,29.71,WNW,292,4.0,7.0,1,0.00,,,0.00,Weather View 32 v70,2013-11-23 10:35:00,
2013-11-23 05:40:00,62.9,-39.3,29.71,WNW,292,3.0,7.0,1,0.00,,,0.00,Weather View 32 v70,2013-11-23 10:40:00,
2013-11-23 05:45:00,62.9,-39.3,29.72,WNW,292,4.0,7.0,1,0.00,,,0.00,Weather View 32 v70,2013-11-23 10:45:00,
2013-11-23 05:50:00,62.9,-39.3,29.72,WNW,292,3.0,7.0,1,0.00,,,0.00,Weather View 32 v70,2013-11-23 10:50:00,
2013-11-23 05:55:00,62.9,-39.3,29.72,West,270,6.0,7.0,1,0.00,,,0.00,Weather View 32 v70,2013-11-23 10:55:00,
2013-11-23 06:01:00,62.9,-39.3,29.72,WNW,292,3.0,9.0,1,0.00,,,0.00,Weather View 32 v70,2013-11-23 11:01:00,
2013-11-23 06:06:00,62.9,-39.3,29.72,WNW,292,4.0,9.0,1,0.00,,,0.00,Weather View 32 v70,2013-11-23 11:06:00,
2013-11-23 06:11:00,62.9,-39.3,29.72,WNW,292,4.0,9.0,1,0.00,,,0.00,Weather View 32 v70,2013-11-23 11:11:00,
2013-11-23 06:16:00,62.9,-39.3,29.72,WNW,292,4.0,9.0,1,0.00,,,0.00,Weather View 32 v70,2013-11-23 11:16:00,
2013-11-23 06:21:00,62.9,-39.3,29.72,WNW,292,4.0,9.0,1,0.00,,,0.00,Weather View 32 v70,2013-11-23 11:21:00,
2013-11-23 06:26:00,62.9,-39.3,29.72,WNW,292,4.0,9.0,1,0.00,,,0.00,Weather View 32 v70,2013-11-23 11:26:00,
2013-11-23 06:31:00,62.7,-39.5,29.72,West,270,3.0,9.0,1,0.00,,,0.00,Weather View 32 v70,2013-11-23 11:31:00,
2013-11-23 06:36:00,62.8,-39.4,29.72,WNW,292,4.0,9.0,1,0.00,,,0.00,Weather View 32 v70,2013-11-23 11:36:00,
2013-11-23 06:41:00,62.8,-39.4,29.72,West,270,2.0,9.0,1,0.00,,,0.00,Weather View 32 v70,2013-11-23 11:41:00,
2013-11-23 06:46:00,62.8,-39.4,29.72,West,270,3.0,9.0,1,0.00,,,0.00,Weather View 32 v70,2013-11-23 11:46:00,
2013-11-23 06:51:00,62.8,-39.4,29.72,WNW,292,2.0,9.0,1,0.00,,,0.00,Weather View 32 v70,2013-11-23 11:51:00,
2013-11-23 06:56:00,62.8,-39.4,29.72,West,270,2.0,9.0,1,0.00,,,0.00,Weather View 32 v70,2013-11-23 11:56:00,
2013-11-23 07:01:00,62.8,-39.4,29.72,West,270,1.0,7.0,1,0.00,,,0.00,Weather View 32 v70,2013-11-23 12:01:00,
2013-11-23 07:06:00,62.9,-39.3,29.72,West,270,1.0,6.0,1,0.00,,,0.00,Weather View 32 v70,2013-11-23 12:06:00,
2013-11-23 07:11:00,62.9,-39.3,29.72,West,270,2.0,6.0,1,0.00,,,0.00,Weather View 32 v70,2013-11-23 12:11:00,
2013-11-23 07:16:00,62.9,-39.3,29.72,WSW,247,3.0,6.0,1,0.00,,,0.00,Weather View 32 v70,2013-11-23 12:16:00,
2013-11-23 07:21:00,62.9,-39.3,29.72,WSW,247,2.0,6.0,1,0.00,,,0.00,Weather View 32 v70,2013-11-23 12:21:00,
2013-11-23 07:26:00,62.9,-39.3,29.72,WSW,247,2.0,6.0,1,0.00,,,0.00,Weather View 32 v70,2013-11-23 12:26:00,
2013-11-23 07:31:00,62.9,-39.3,29.72,WSW,247,2.0,6.0,1,0.00,,,0.00,Weather View 32 v70,2013-11-23 12:31:00,
2013-11-23 07:36:00,62.9,-39.3,29.71,WSW,247,2.0,6.0,1,0.00,,,0.00,Weather View 32 v70,2013-11-23 12:36:00,
2013-11-23 07:41:00,62.9,-39.3,29.71,SW,225,2.0,4.0,1,0.00,,,0.00,Weather View 32 v70,2013-11-23 12:41:00,
2013-11-23 07:46:00,62.9,-39.3,29.71,SSW,202,3.0,4.0,1,0.00,,,0.00,Weather View 32 v70,2013-11-23 12:46:00,
2013-11-23 07:51:00,62.9,-39.3,29.71,WSW,247,5.0,5.0,1,0.00,,,0.00,Weather View 32 v70,2013-11-23 12:51:00,
2013-11-23 07:56:00,62.9,-39.3,29.71,SSW,202,5.0,6.0,1,0.00,,,0.00,Weather View 32 v70,2013-11-23 12:56:00,
2013-11-23 08:01:00,63.1,-39.2,29.71,SW,225,2.0,6.0,1,0.00,,,0.00,Weather View 32 v70,2013-11-23 13:01:00,
2013-11-23 08:06:00,62.9,-39.3,29.71,SW,225,2.0,6.0,1,0.00,,,0.00,Weather View 32 v70,2013-11-23 13:06:00,
2013-11-23 08:11:00,63.0,-39.3,29.72,West,270,2.0,6.0,1,0.00,,,0.00,Weather View 32 v70,2013-11-23 13:11:00,
2013-11-23 08:16:00,63.3,-39.1,29.72,West,270,3.0,6.0,1,0.00,,,0.00,Weather View 32 v70,2013-11-23 13:16:00,
2013-11-23 08:21:00,63.1,-39.2,29.72,West,270,2.0,6.0,1,0.00,,,0.00,Weather View 32 v70,2013-11-23 13:21:00,
2013-11-23 08:26:00,63.3,-39.1,29.72,WNW,292,2.0,6.0,1,0.00,,,0.00,Weather View 32 v70,2013-11-23 13:26:00,
2013-11-23 08:31:00,63.2,-39.2,29.72,WNW,292,2.0,6.0,1,0.00,,,0.00,Weather View 32 v70,2013-11-23 13:31:00,
2013-11-23 08:36:00,63.4,-39.0,29.72,WNW,292,4.0,6.0,1,0.00,,,0.00,Weather View 32 v70,2013-11-23 13:36:00,
2013-11-23 08:41:00,63.5,-39.0,29.72,WNW,292,2.0,6.0,1,0.00,,,0.00,Weather View 32 v70,2013-11-23 13:41:00,
2013-11-23 08:47:00,63.6,-38.9,29.72,WNW,292,2.0,6.0,1,0.00,,,0.00,Weather View 32 v70,2013-11-23 13:47:00,
2013-11-23 08:52:00,63.4,-39.0,29.72,West,270,3.0,6.0,1,0.00,,,0.00,Weather View 32 v70,2013-11-23 13:52:00,
2013-11-23 08:57:00,63.6,-38.9,29.72,West,270,3.0,6.0,1,0.00,,,0.00,Weather View 32 v70,2013-11-23 13:57:00,
2013-11-23 09:02:00,63.7,-38.8,29.72,WNW,292,1.0,6.0,1,0.00,,,0.00,Weather View 32 v70,2013-11-23 14:02:00,
2013-11-23 09:07:00,63.7,-38.8,29.72,WNW,292,4.0,6.0,1,0.00,,,0.00,Weather View 32 v70,2013-11-23 14:07:00,
2013-11-23 09:12:00,63.7,-38.8,29.72,NW,315,2.0,6.0,1,0.00,,,0.00,Weather View 32 v70,2013-11-23 14:12:00,
2013-11-23 09:17:00,63.4,-39.0,29.73,WNW,292,6.0,6.0,1,0.00,,,0.00,Weather View 32 v70,2013-11-23 14:17:00,
2013-11-23 09:22:00,63.5,-39.0,29.73,WNW,292,4.0,7.0,1,0.00,,,0.00,Weather View 32 v70,2013-11-23 14:22:00,
2013-11-23 09:27:00,63.4,-39.0,29.73,NW,315,4.0,7.0,1,0.00,,,0.00,Weather View 32 v70,2013-11-23 14:27:00,
2013-11-23 09:32:00,63.5,-39.0,29.73,WNW,292,5.0,7.0,1,0.00,,,0.00,Weather View 32 v70,2013-11-23 14:32:00,
2013-11-23 09:37:00,63.5,-39.0,29.73,WNW,292,2.0,7.0,1,0.00,,,0.00,Weather View 32 v70,2013-11-23 14:37:00,
2013-11-23 09:42:00,63.3,-39.1,29.73,NW,315,5.0,7.0,1,0.00,,,0.00,Weather View 32 v70,2013-11-23 14:42:00,
2013-11-23 09:47:00,63.6,-38.9,29.73,WNW,292,4.0,7.0,1,0.00,,,0.00,Weather View 32 v70,2013-11-23 14:47:00,
2013-11-23 09:52:00,63.4,-39.0,29.73,NW,315,5.0,7.0,1,0.00,,,0.00,Weather View 32 v70,2013-11-23 14:52:00,
2013-11-23 09:57:00,63.6,-38.9,29.73,WNW,292,4.0,7.0,1,0.00,,,0.00,Weather View 32 v70,2013-11-23 14:57:00,
2013-11-23 10:02:00,63.5,-39.0,29.73,WNW,292,4.0,7.0,1,0.00,,,0.00,Weather View 32 v70,2013-11-23 15:02:00,
2013-11-23 10:07:00,63.4,-39.0,29.73,NW,315,3.0,7.0,1,0.00,,,0.00,Weather View 32 v70,2013-11-23 15:07:00,
2013-11-23 10:12:00,63.4,-39.0,29.73,NW,315,4.0,7.0,1,0.00,,,0.00,Weather View 32 v70,2013-11-23 15:12:00,
2013-11-23 10:17:00,63.4,-39.0,29.73,NW,315,4.0,7.0,1,0.00,,,0.00,Weather View 32 v70,2013-11-23 15:17:00,
2013-11-23 10:22:00,63.4,-39.0,29.73,NW,315,5.0,6.0,1,0.00,,,0.00,Weather View 32 v70,2013-11-23 15:22:00,
2013-11-23 10:27:00,63.4,-39.0,29.73,NW,315,3.0,6.0,1,0.00,,,0.00,Weather View 32 v70,2013-11-23 15:27:00,
2013-11-23 10:33:00,63.5,-39.0,29.73,NW,315,1.0,6.0,1,0.00,,,0.00,Weather View 32 v70,2013-11-23 15:33:00,
2013-11-23 10:38:00,63.5,-39.0,29.73,NW,315,2.0,6.0,1,0.00,,,0.00,Weather View 32 v70,2013-11-23 15:38:00,
2013-11-23 10:43:00,63.8,-38.8,29.73,NW,315,2.0,6.0,1,0.00,,,0.00,Weather View 32 v70,2013-11-23 15:43:00,
2013-11-23 10:48:00,63.7,-38.8,29.73,WNW,292,2.0,6.0,1,0.00,,,0.00,Weather View 32 v70,2013-11-23 15:48:00,
2013-11-23 10:53:00,63.6,-38.9,29.73,WNW,292,2.0,6.0,1,0.00,,,0.00,Weather View 32 v70,2013-11-23 15:53:00,
2013-11-23 10:58:00,64.2,-38.5,29.71,WNW,292,3.0,6.0,1,0.00,,,0.00,Weather View 32 v70,2013-11-23 15:58:00,
2013-11-23 11:03:00,64.7,-38.2,29.72,NW,315,3.0,6.0,1,0.00,,,0.00,Weather View 32 v70,2013-11-23 16:03:00,
2013-11-23 11:08:00,65.0,-38.1,29.71,NW,315,2.0,6.0,1,0.00,,,0.00,Weather View 32 v70,2013-11-23 16:08:00,
2013-11-23 11:13:00,65.3,-37.9,29.71,WNW,292,4.0,6.0,1,0.00,,,0.00,Weather View 32 v70,2013-11-23 16:13:00,
2013-11-23 11:27:00,65.9,-37.5,29.70,NW,315,5.0,5.0,1,0.00,,,0.00,Weather View 32 v70,2013-11-23 16:27:00,
2013-11-23 11:32:00,66.1,-37.4,29.70,WNW,292,4.0,6.0,1,0.00,,,0.00,Weather View 32 v70,2013-11-23 16:32:00,
2013-11-23 11:37:00,66.5,-37.2,29.70,West,270,6.0,6.0,1,0.00,,,0.00,Weather View 32 v70,2013-11-23 16:37:00,
2013-11-23 11:42:00,66.8,-37.0,29.70,WNW,292,4.0,6.0,1,0.00,,,0.00,Weather View 32 v70,2013-11-23 16:42:00,
2013-11-23 11:47:00,67.1,-36.8,29.69,West,270,4.0,6.0,1,0.00,,,0.00,Weather View 32 v70,2013-11-23 16:47:00,
2013-11-23 11:52:00,67.1,-36.8,29.69,West,270,5.0,6.0,1,0.00,,,0.00,Weather View 32 v70,2013-11-23 16:52:00,
2013-11-23 11:57:00,67.1,-36.8,29.69,NW,315,6.0,6.0,1,0.00,,,0.00,Weather View 32 v70,2013-11-23 16:57:00,
2013-11-23 12:02:00,67.0,-36.9,29.69,WNW,292,4.0,6.0,1,0.00,,,0.00,Weather View 32 v70,2013-11-23 17:02:00,
2013-11-23 12:07:00,67.1,-36.8,29.69,WNW,292,7.0,7.0,1,0.00,,,0.00,Weather View 32 v70,2013-11-23 17:07:00,
2013-11-23 12:12:00,67.3,-36.7,29.69,WNW,292,4.0,7.0,1,0.00,,,0.00,Weather View 32 v70,2013-11-23 17:12:00,
2013-11-23 12:17:00,67.1,-36.8,29.69,WNW,292,4.0,7.0,1,0.00,,,0.00,Weather View 32 v70,2013-11-23 17:17:00,
2013-11-23 12:22:00,68.4,-36.0,29.68,WSW,247,6.0,7.0,1,0.00,,,0.00,Weather View 32 v70,2013-11-23 17:22:00,
2013-11-23 12:27:00,68.9,-35.7,29.67,WNW,292,4.0,8.0,1,0.00,,,0.00,Weather View 32 v70,2013-11-23 17:27:00,
2013-11-23 12:32:00,68.9,-35.7,29.67,WNW,292,4.0,8.0,1,0.00,,,0.00,Weather View 32 v70,2013-11-23 17:32:00,
2013-11-23 12:37:00,69.2,-35.5,29.67,NW,315,4.0,8.0,1,0.00,,,0.00,Weather View 32 v70,2013-11-23 17:37:00,
2013-11-23 12:45:00,70.1,-35.0,29.67,NNW,337,4.0,8.0,1,0.00,,,0.00,Weather View 32 v70,2013-11-23 17:45:00,
2013-11-23 12:50:00,70.3,-34.9,29.67,WNW,292,4.0,8.0,1,0.00,,,0.00,Weather View 32 v70,2013-11-23 17:50:00,
2013-11-23 12:57:00,70.3,-34.9,29.66,WNW,292,3.0,8.0,1,0.00,,,0.00,Weather View 32 v70,2013-11-23 17:57:00,
2013-11-23 13:02:00,70.1,-35.0,29.66,NNW,337,9.0,9.0,1,0.00,,,0.00,Weather View 32 v70,2013-11-23 18:02:00,
2013-11-23 13:25:00,68.7,-35.8,29.66,North,360,6.0,9.0,1,0.00,,,0.00,Weather View 32 v70,2013-11-23 18:25:00,
2013-11-23 13:30:00,68.3,-36.1,29.66,NW,315,6.0,9.0,1,0.00,,,0.00,Weather View 32 v70,2013-11-23 18:30:00,
2013-11-23 13:35:00,67.9,-36.3,29.66,North,360,6.0,9.0,1,0.00,,,0.00,Weather View 32 v70,2013-11-23 18:35:00,
2013-11-23 13:40:00,67.7,-36.4,29.66,NNE,22,7.0,10.0,1,0.00,,,0.00,Weather View 32 v70,2013-11-23 18:40:00,
2013-11-23 13:45:00,67.4,-36.6,29.66,NNW,337,7.0,10.0,1,0.00,,,0.00,Weather View 32 v70,2013-11-23 18:45:00,
2013-11-23 13:52:00,67.3,-36.7,29.66,North,360,6.0,10.0,1,0.00,,,0.00,Weather View 32 v70,2013-11-23 18:52:00,
2013-11-23 13:57:00,67.1,-36.8,29.66,NNW,337,8.0,10.0,1,0.00,,,0.00,Weather View 32 v70,2013-11-23 18:57:00,
2013-11-23 14:02:00,67.1,-36.8,29.65,NNE,22,9.0,10.0,1,0.00,,,0.00,Weather View 32 v70,2013-11-23 19:02:00,
2013-11-23 14:07:00,67.7,-36.4,29.65,NNW,337,6.0,11.0,1,0.00,,,0.00,Weather View 32 v70,2013-11-23 19:07:00,
2013-11-23 14:12:00,68.2,-36.1,29.65,WNW,292,4.0,11.0,1,0.00,,,0.00,Weather View 32 v70,2013-11-23 19:12:00,
2013-11-23 14:17:00,67.5,-36.6,29.65,NNW,337,6.0,11.0,1,0.00,,,0.00,Weather View 32 v70,2013-11-23 19:17:00,
2013-11-23 14:22:00,66.4,-37.2,29.66,NNW,337,6.0,11.0,1,0.00,,,0.00,Weather View 32 v70,2013-11-23 19:22:00,
2013-11-23 14:27:00,65.9,-37.5,29.66,NNW,337,4.0,11.0,1,0.00,,,0.00,Weather View 32 v70,2013-11-23 19:27:00,
2013-11-23 14:32:00,65.4,-37.8,29.66,NNW,337,6.0,11.0,1,0.00,,,0.00,Weather View 32 v70,2013-11-23 19:32:00,
2013-11-23 14:37:00,65.2,-37.9,29.66,NW,315,5.0,11.0,1,0.00,,,0.00,Weather View 32 v70,2013-11-23 19:37:00,
2013-11-23 14:42:00,65.0,-38.1,29.66,NW,315,6.0,11.0,1,0.00,,,0.00,Weather View 32 v70,2013-11-23 19:42:00,
2013-11-23 14:47:00,65.0,-38.1,29.66,NW,315,4.0,11.0,1,0.00,,,0.00,Weather View 32 v70,2013-11-23 19:47:00,
2013-11-23 14:52:00,65.1,-38.0,29.66,NW,315,4.0,11.0,1,0.00,,,0.00,Weather View 32 v70,2013-11-23 19:52:00,
2013-11-23 14:58:00,65.0,-38.1,29.66,North,360,7.0,11.0,1,0.00,,,0.00,Weather View 32 v70,2013-11-23 19:58:00,
2013-11-23 15:03:00,65.0,-38.1,29.66,North,360,9.0,11.0,1,0.00,,,0.00,Weather View 32 v70,2013-11-23 20:03:00,
2013-11-23 15:08:00,64.9,-38.1,29.66,North,360,3.0,9.0,1,0.00,,,0.00,Weather View 32 v70,2013-11-23 20:08:00,
2013-11-23 15:13:00,64.7,-38.2,29.66,North,360,4.0,9.0,1,0.00,,,0.00,Weather View 32 v70,2013-11-23 20:13:00,
2013-11-23 15:18:00,64.4,-38.4,29.66,NNW,337,6.0,9.0,1,0.00,,,0.00,Weather View 32 v70,2013-11-23 20:18:00,
2013-11-23 15:23:00,64.5,-38.4,29.66,NW,315,4.0,9.0,1,0.00,,,0.00,Weather View 32 v70,2013-11-23 20:23:00,
2013-11-23 15:28:00,63.9,-38.7,29.66,NNW,337,2.0,9.0,1,0.00,,,0.00,Weather View 32 v70,2013-11-23 20:28:00,
2013-11-23 15:33:00,64.0,-38.7,29.66,North,360,6.0,9.0,1,0.00,,,0.00,Weather View 32 v70,2013-11-23 20:33:00,
2013-11-23 15:38:00,63.5,-39.0,29.66,NNW,337,5.0,9.0,1,0.00,,,0.00,Weather View 32 v70,2013-11-23 20:38:00,
2013-11-23 15:43:00,63.3,-39.1,29.66,NW,315,4.0,9.0,1,0.00,,,0.00,Weather View 32 v70,2013-11-23 20:43:00,
2013-11-23 15:48:00,63.2,-39.2,29.66,NNE,22,4.0,9.0,1,0.00,,,0.00,Weather View 32 v70,2013-11-23 20:48:00,
2013-11-23 15:53:00,63.0,-39.3,29.67,North,360,6.0,9.0,1,0.00,,,0.00,Weather View 32 v70,2013-11-23 20:53:00,
2013-11-23 15:58:00,62.7,-39.5,29.67,NE,45,4.0,9.0,1,0.00,,,0.00,Weather View 32 v70,2013-11-23 20:58:00,
2013-11-23 16:03:00,62.5,-39.6,29.67,NNE,22,4.0,9.0,1,0.00,,,0.00,Weather View 32 v70,2013-11-23 21:03:00,
2013-11-23 16:08:00,62.3,-39.7,29.67,ENE,67,4.0,9.0,1,0.00,,,0.00,Weather View 32 v70,2013-11-23 21:08:00,
2013-11-23 16:13:00,61.8,-40.0,29.67,ENE,67,7.0,10.0,1,0.00,,,0.00,Weather View 32 v70,2013-11-23 21:13:00,
2013-11-23 16:18:00,61.5,-40.2,29.67,NNE,22,2.0,10.0,1,0.00,,,0.00,Weather View 32 v70,2013-11-23 21:18:00,
2013-11-23 16:23:00,61.3,-40.3,29.67,NE,45,3.0,10.0,1,0.00,,,0.00,Weather View 32 v70,2013-11-23 21:23:00,
2013-11-23 16:28:00,61.2,-40.4,29.67,North,360,2.0,10.0,1,0.00,,,0.00,Weather View 32 v70,2013-11-23 21:28:00,
2013-11-23 16:33:00,61.2,-40.4,29.67,NE,45,2.0,10.0,1,0.00,,,0.00,Weather View 32 v70,2013-11-23 21:33:00,
2013-11-23 16:38:00,61.1,-40.4,29.67,NE,45,2.0,10.0,1,0.00,,,0.00,Weather View 32 v70,2013-11-23 21:38:00,
2013-11-23 16:43:00,61.3,-40.3,29.67,NNE,22,2.0,10.0,1,0.00,,,0.00,Weather View 32 v70,2013-11-23 21:43:00,
2013-11-23 16:48:00,61.2,-40.4,29.67,ENE,67,2.0,10.0,1,0.00,,,0.00,Weather View 32 v70,2013-11-23 21:48:00,
2013-11-23 16:53:00,61.2,-40.4,29.67,ENE,67,2.0,10.0,1,0.00,,,0.00,Weather View 32 v70,2013-11-23 21:53:00,
2013-11-23 16:58:00,61.1,-40.4,29.68,NE,45,2.0,10.0,1,0.00,,,0.00,Weather View 32 v70,2013-11-23 21:58:00,
2013-11-23 17:03:00,61.0,-40.5,29.67,ENE,67,4.0,10.0,1,0.00,,,0.00,Weather View 32 v70,2013-11-23 22:03:00,
2013-11-23 17:08:00,60.9,-40.5,29.67,ENE,67,5.0,10.0,1,0.00,,,0.00,Weather View 32 v70,2013-11-23 22:08:00,
2013-11-23 17:13:00,60.8,-40.6,29.67,East,90,5.0,7.0,1,0.00,,,0.00,Weather View 32 v70,2013-11-23 22:13:00,
2013-11-23 17:18:00,60.7,-40.7,29.67,East,90,5.0,6.0,1,0.00,,,0.00,Weather View 32 v70,2013-11-23 22:18:00,
2013-11-23 17:23:00,60.6,-40.7,29.67,ENE,67,4.0,6.0,1,0.00,,,0.00,Weather View 32 v70,2013-11-23 22:23:00,
2013-11-23 17:28:00,60.6,-40.7,29.68,ENE,67,4.0,6.0,1,0.00,,,0.00,Weather View 32 v70,2013-11-23 22:28:00,
2013-11-23 17:33:00,60.6,-40.7,29.68,NE,45,7.0,7.0,1,0.00,,,0.00,Weather View 32 v70,2013-11-23 22:33:00,
2013-11-23 17:38:00,60.1,-41.0,29.69,East,90,4.0,10.0,1,0.00,,,0.00,Weather View 32 v70,2013-11-23 22:38:00,
2013-11-23 17:43:00,59.5,-41.4,29.69,ENE,67,5.0,10.0,1,0.00,,,0.00,Weather View 32 v70,2013-11-23 22:43:00,
2013-11-23 17:48:00,59.3,-41.5,29.70,NE,45,6.0,10.0,1,0.00,,,0.00,Weather View 32 v70,2013-11-23 22:48:00,
2013-11-23 17:53:00,59.2,-41.6,29.70,NE,45,7.0,10.0,1,0.00,,,0.00,Weather View 32 v70,2013-11-23 22:53:00,
2013-11-23 17:58:00,59.1,-41.6,29.70,NE,45,5.0,10.0,1,0.00,,,0.00,Weather View 32 v70,2013-11-23 22:58:00,
2013-11-23 18:03:00,59.1,-41.6,29.70,ENE,67,4.0,10.0,1,0.00,,,0.00,Weather View 32 v70,2013-11-23 23:03:00,
2013-11-23 18:08:00,58.9,-41.8,29.70,ENE,67,4.0,10.0,1,0.00,,,0.00,Weather View 32 v70,2013-11-23 23:08:00,
2013-11-23 18:09:00,58.9,-41.8,29.70,ENE,67,6.0,10.0,1,0.00,,,0.00,Weather View 32 v70,2013-11-23 23:09:00,
2013-11-23 18:14:00,58.9,-41.8,29.69,ENE,67,4.0,10.0,1,0.00,,,0.00,Weather View 32 v70,2013-11-23 23:14:00,
2013-11-23 18:19:00,58.9,-41.8,29.69,ENE,67,5.0,10.0,1,0.00,,,0.00,Weather View 32 v70,2013-11-23 23:19:00,
2013-11-23 18:24:00,58.8,-41.8,29.70,NE,45,5.0,10.0,1,0.00,,,0.00,Weather View 32 v70,2013-11-23 23:24:00,
2013-11-23 18:29:00,58.7,-41.9,29.70,ENE,67,6.0,10.0,1,0.00,,,0.00,Weather View 32 v70,2013-11-23 23:29:00,
2013-11-23 18:34:00,58.7,-41.9,29.71,NE,45,3.0,10.0,1,0.00,,,0.00,Weather View 32 v70,2013-11-23 23:34:00,
2013-11-23 18:39:00,58.7,-41.9,29.71,NE,45,4.0,10.0,1,0.00,,,0.00,Weather View 32 v70,2013-11-23 23:39:00,
2013-11-23 18:44:00,58.7,-41.9,29.70,NNE,22,4.0,9.0,1,0.00,,,0.00,Weather View 32 v70,2013-11-23 23:44:00,
2013-11-23 18:49:00,58.7,-41.9,29.70,ENE,67,6.0,9.0,1,0.00,,,0.00,Weather View 32 v70,2013-11-23 23:49:00,
2013-11-23 18:54:00,58.7,-41.9,29.70,NE,45,6.0,9.0,1,0.00,,,0.00,Weather View 32 v70,2013-11-23 23:54:00,
2013-11-23 18:59:00,58.7,-41.9,29.71,ENE,67,6.0,7.0,1,0.00,,,0.00,Weather View 32 v70,2013-11-23 23:59:00,
2013-11-23 19:04:00,58.7,-41.9,29.71,NE,45,5.0,7.0,1,0.00,,,0.00,Weather View 32 v70,2013-11-24 00:04:00,
2013-11-23 19:09:00,58.7,-41.9,29.71,NNE,22,2.0,7.0,1,0.00,,,0.00,Weather View 32 v70,2013-11-24 00:09:00,
2013-11-23 19:14:00,58.8,-41.8,29.71,NE,45,2.0,7.0,1,0.00,,,0.00,Weather View 32 v70,2013-11-24 00:14:00,
2013-11-23 19:19:00,58.8,-41.8,29.71,NNE,22,2.0,7.0,1,0.00,,,0.00,Weather View 32 v70,2013-11-24 00:19:00,
2013-11-23 19:24:00,58.8,-41.8,29.71,North,360,2.0,6.0,1,0.00,,,0.00,Weather View 32 v70,2013-11-24 00:24:00,
2013-11-23 19:29:00,58.7,-41.9,29.71,NNE,22,1.0,6.0,1,0.00,,,0.00,Weather View 32 v70,2013-11-24 00:29:00,
2013-11-23 19:34:00,58.7,-41.9,29.71,ENE,67,2.0,6.0,1,0.00,,,0.00,Weather View 32 v70,2013-11-24 00:34:00,
2013-11-23 19:39:00,58.7,-41.9,29.71,NE,45,3.0,6.0,1,0.00,,,0.00,Weather View 32 v70,2013-11-24 00:39:00,
2013-11-23 19:44:00,58.7,-41.9,29.71,NE,45,4.0,6.0,1,0.00,,,0.00,Weather View 32 v70,2013-11-24 00:44:00,
2013-11-23 19:49:00,58.7,-41.9,29.71,ENE,67,2.0,6.0,1,0.00,,,0.00,Weather View 32 v70,2013-11-24 00:49:00,
2013-11-23 19:54:00,58.7,-41.9,29.71,NE,45,2.0,6.0,1,0.00,,,0.00,Weather View 32 v70,2013-11-24 00:54:00,
2013-11-23 19:59:00,58.6,-41.9,29.71,NNE,22,3.0,6.0,1,0.00,,,0.00,Weather View 32 v70,2013-11-24 00:59:00,
2013-11-23 20:04:00,58.6,-41.9,29.72,NNE,22,1.0,6.0,1,0.00,,,0.00,Weather View 32 v70,2013-11-24 01:04:00,
2013-11-23 20:10:00,58.6,-41.9,29.71,NE,45,1.0,4.0,1,0.00,,,0.00,Weather View 32 v70,2013-11-24 01:10:00,
2013-11-23 20:15:00,58.6,-41.9,29.72,North,360,2.0,4.0,1,0.00,,,0.00,Weather View 32 v70,2013-11-24 01:15:00,
2013-11-23 20:20:00,58.6,-41.9,29.72,NNW,337,2.0,4.0,1,0.00,,,0.00,Weather View 32 v70,2013-11-24 01:20:00,
2013-11-23 20:25:00,58.6,-41.9,29.72,NE,45,3.0,4.0,1,0.00,,,0.00,Weather View 32 v70,2013-11-24 01:25:00,
2013-11-23 20:30:00,58.6,-41.9,29.71,North,360,2.0,4.0,1,0.00,,,0.00,Weather View 32 v70,2013-11-24 01:30:00,
2013-11-23 20:35:00,58.5,-42.0,29.71,North,360,2.0,4.0,1,0.00,,,0.00,Weather View 32 v70,2013-11-24 01:35:00,
2013-11-23 20:40:00,58.4,-42.1,29.72,NNW,337,4.0,4.0,1,0.00,,,0.00,Weather View 32 v70,2013-11-24 01:40:00,
2013-11-23 20:45:00,58.4,-42.1,29.72,NNW,337,1.0,4.0,1,0.00,,,0.00,Weather View 32 v70,2013-11-24 01:45:00,
2013-11-23 20:50:00,58.3,-42.1,29.72,NNW,337,2.0,4.0,1,0.00,,,0.00,Weather View 32 v70,2013-11-24 01:50:00,
2013-11-23 20:55:00,58.1,-42.2,29.72,NNW,337,2.0,4.0,1,0.00,,,0.00,Weather View 32 v70,2013-11-24 01:55:00,
2013-11-23 21:00:00,57.9,-42.4,29.72,NW,315,2.0,4.0,1,0.00,,,0.00,Weather View 32 v70,2013-11-24 02:00:00,
2013-11-23 21:05:00,57.9,-42.4,29.72,NNW,337,2.0,4.0,1,0.00,,,0.00,Weather View 32 v70,2013-11-24 02:05:00,
2013-11-23 21:10:00,57.8,-42.4,29.72,NW,315,3.0,4.0,1,0.00,,,0.00,Weather View 32 v70,2013-11-24 02:10:00,
2013-11-23 21:15:00,57.8,-42.4,29.73,NW,315,2.0,4.0,1,0.00,,,0.00,Weather View 32 v70,2013-11-24 02:15:00,
2013-11-23 21:20:00,57.7,-42.5,29.73,NNW,337,1.0,4.0,1,0.00,,,0.00,Weather View 32 v70,2013-11-24 02:20:00,
2013-11-23 21:25:00,57.7,-42.5,29.73,NNW,337,2.0,4.0,1,0.00,,,0.00,Weather View 32 v70,2013-11-24 02:25:00,
2013-11-23 21:30:00,57.6,-42.5,29.73,NNW,337,2.0,5.0,1,0.00,,,0.00,Weather View 32 v70,2013-11-24 02:30:00,
2013-11-23 21:35:00,57.6,-42.5,29.73,North,360,4.0,7.0,1,0.00,,,0.00,Weather View 32 v70,2013-11-24 02:35:00,
2013-11-23 21:40:00,57.5,-42.6,29.73,North,360,2.0,12.0,1,0.00,,,0.00,Weather View 32 v70,2013-11-24 02:40:00,
2013-11-23 21:45:00,57.5,-42.6,29.73,NNW,337,3.0,12.0,1,0.00,,,0.00,Weather View 32 v70,2013-11-24 02:45:00,
2013-11-23 21:50:00,57.5,-42.6,29.73,NNW,337,4.0,12.0,1,0.00,,,0.00,Weather View 32 v70,2013-11-24 02:50:00,
2013-11-23 21:55:00,57.5,-42.6,29.73,North,360,6.0,12.0,1,0.00,,,0.00,Weather View 32 v70,2013-11-24 02:55:00,
2013-11-23 22:00:00,57.5,-42.6,29.73,NNE,22,5.0,12.0,1,0.00,,,0.00,Weather View 32 v70,2013-11-24 03:00:00,
2013-11-23 22:05:00,57.5,-42.6,29.73,NNW,337,9.0,13.0,1,0.00,,,0.00,Weather View 32 v70,2013-11-24 03:05:00,
2013-11-23 22:10:00,57.4,-42.7,29.73,North,360,7.0,13.0,1,0.00,,,0.00,Weather View 32 v70,2013-11-24 03:10:00,
2013-11-23 22:15:00,57.3,-42.7,29.74,NE,45,6.0,13.0,1,0.00,,,0.00,Weather View 32 v70,2013-11-24 03:15:00,
2013-11-23 22:20:00,57.2,-42.8,29.74,NNE,22,6.0,13.0,1,0.00,,,0.00,Weather View 32 v70,2013-11-24 03:20:00,
2013-11-23 22:25:00,57.1,-42.8,29.74,NE,45,12.0,13.0,1,0.00,,,0.00,Weather View 32 v70,2013-11-24 03:25:00,
2013-11-23 22:30:00,56.9,-6.7,29.74,NNW,337,9.0,13.0,7,0.00,,,0.00,Weather View 32 v70,2013-11-24 03:30:00,
2013-11-23 22:35:00,56.7,2.7,29.74,NNW,337,7.0,13.0,11,0.00,,,0.00,Weather View 32 v70,2013-11-24 03:35:00,
2013-11-23 22:40:00,56.5,2.5,29.75,NE,45,3.0,13.0,11,0.00,,,0.00,Weather View 32 v70,2013-11-24 03:40:00,
2013-11-23 22:45:00,56.2,5.9,29.75,NE,45,9.0,13.0,13,0.00,,,0.00,Weather View 32 v70,2013-11-24 03:45:00,
2013-11-23 22:50:00,55.9,10.3,29.75,North,360,2.0,13.0,16,0.00,,,0.00,Weather View 32 v70,2013-11-24 03:50:00,
2013-11-23 22:55:00,55.7,12.8,29.75,North,360,9.0,13.0,18,0.00,,,0.00,Weather View 32 v70,2013-11-24 03:55:00,
2013-11-23 23:00:00,55.5,18.2,29.75,NNE,22,6.0,13.0,23,0.00,,,0.00,Weather View 32 v70,2013-11-24 04:00:00,
2013-11-23 23:05:00,55.3,21.8,29.76,NNW,337,4.0,13.0,27,0.00,,,0.00,Weather View 32 v70,2013-11-24 04:05:00,
2013-11-23 23:10:00,55.1,24.2,29.76,North,360,4.0,13.0,30,0.00,,,0.00,Weather View 32 v70,2013-11-24 04:10:00,
2013-11-23 23:15:00,54.9,24.8,29.76,NE,45,4.0,13.0,31,0.00,,,0.00,Weather View 32 v70,2013-11-24 04:15:00,
2013-11-23 23:20:00,54.7,24.6,29.76,North,360,5.0,13.0,31,0.00,,,0.00,Weather View 32 v70,2013-11-24 04:20:00,
2013-11-23 23:25:00,54.4,24.3,29.76,North,360,7.0,13.0,31,0.00,,,0.00,Weather View 32 v70,2013-11-24 04:25:00,
2013-11-23 23:30:00,53.9,24.7,29.76,NNW,337,2.0,13.0,32,0.00,,,0.00,Weather View 32 v70,2013-11-24 04:30:00,
2013-11-23 23:35:00,53.7,25.2,29.76,North,360,3.0,13.0,33,0.00,,,0.00,Weather View 32 v70,2013-11-24 04:35:00,
2013-11-23 23:40:00,53.4,26.4,29.76,NNW,337,3.0,12.0,35,0.00,,,0.00,Weather View 32 v70,2013-11-24 04:40:00,
2013-11-23 23:45:00,53.2,26.9,29.76,North,360,4.0,12.0,36,0.00,,,0.00,Weather View 32 v70,2013-11-24 04:45:00,
2013-11-23 23:50:00,52.9,27.3,29.76,North,360,4.0,12.0,37,0.00,,,0.00,Weather View 32 v70,2013-11-24 04:50:00,
2013-11-23 23:55:00,52.7,27.8,29.77,North,360,9.0,12.0,38,0.00,,,0.00,Weather View 32 v70,2013-11-24 04:55:00,